STARLINK-5842, 56491

Orbit data source: Space-Track

STARLINK-5842, 56491 is a payload satellite owned by SpaceX/Seattle (US) in LEO that was launched on Wed, 10 May 2023 UTC via an FALCON 9 launch vehicle from the Air Force Western Test Range (AFWTR). Payload-class satellites include a variety of spacecraft equipped with specific instruments for various scientific and technological missions. These include communications satellites like Starlink; space stations such as the ISS; scientific satellites like the Hubble; Earth observation satellites from companies like Planet Labs, Umbra, and HawkEye 360; GPS; miniature CubeSats for education and research; and military/defense satellites.

Loading next visibility...
Identifier
56491, 2023-064AV
Orbit
LEO
Country
Flag of USUS
Related business
Manufacturer
SpaceX/Seattle
Mission
Operational Commercial Communications
Bus & Motor
STARLINK, Unknown motor
Mass
305 kg wet, ~290 kg dry
Launch date (UTC)
2023-05-10 (3 years ago)
Launch vehicle
FALCON 9
Launch site
Air Force Western Test Range (AFWTR)
Object type
Payload
Rocket body
Debris
Shape & HBR
Box + 1 Pan, 10.1 m
Radar Cross Section
11.087 m², Large (>1 m²)

Expand to show TLE details & history
Last TLE update: 2 days ago

TLE from 2 days ago
0 STARLINK-5842
1 56491U 23064AV  26171.44076956  .00000525  00000-0  51766-4 0  9999
2 56491  69.9988 205.3787 0003355 269.5675  90.5099 14.98328166171621
Epoch: 2026-06-20T10:34Z
TLE epoch observation values (Epoch: 2026-06-20T10:34:42.489Z)
Latitude
-0.00011°
Longitude
138.04627°
Altitude
574.507 km
Speed
7.574 km/s
True Right ascension
13h 41m 30s
True Declination
0° 00' 00"
Sunlit
Object was in full shadow at epoch
Visualization orbit readout
Latitude
Unknown
Longitude
Unknown
Altitude
Unknown
Speed
Unknown
Apparent Right ascension
Unknown
Apparent Declination
Unknown
Sunlit
N/A
Visualization observer readout
Local Sidereal Time
00:27:40
Azimuth
Unknown
Elevation
Unknown
Doppler factor
Unknown
Orbital elements
Apogee altitude
572.341 km
Perigee altitude
567.679 km
Semi-major axis
6,948.147 km
Eccentricity
0.00034
Inclination
69.9988°
RAAN
205.3787°
Arg. of periapsis
269.5675°
True anomaly
90.54834°
Mean anomaly
90.5099°
Eccentric anomaly
90.52912°
Mean motion
3.74748 °/min
Orbital period
96.06 mins
BSTAR
0.000051766
Loading maneuver chart data...
Computing Atmospheric mass density...
Loading historical data...
Loading historical data...
Loading historical data...
Loading historical data...
Loading historical data...
Loading historical data...
Loading historical data...

Documentation

Showing up to 5 results
|